Moriarty, NM

2:50 AM MDT on May 30, 2017 (GMT -0600)
Moriarty

Weather History for K0E0 - November, 2013

Change the Weather History Date:

Friday, November 29, 2013

  Actual Average Record
Temperature  
Mean Temperature 28 °F -  
Max Temperature 44 °F 39 °F 51 °F (1999)
Min Temperature 11 °F 25 °F 19 °F (2001)
Degree Days  
Heating Degree Days 38    
Moisture  
Dew Point 20 °F    
Average Humidity 81    
Maximum Humidity 95    
Minimum Humidity 55    
Precipitation  
Precipitation 0.00 in - - ()
Sea Level Pressure  
Sea Level Pressure 30.32 in    
Wind  
Wind Speed 3 mph (North)    
Max Wind Speed 7 mph    
Max Gust Speed -    
Visibility 10 miles    
Events      
Averages and records for this station are not official NWS values.
T = Trace of Precipitation, MM = Missing Value Source: NWS Daily Summary

Daily Weather History Graph

Daily Weather History Graph

Search for Another Location

Airport or City:

Trip Planner

Search our weather history database for the weather conditions in past years. The results will help you decide how hot, cold, wet, or windy it might be!

Date:

Astronomy

Nov. 29, 2013 Rise Set
Actual Time 6:52 AM MST 4:52 PM MST
Civil Twilight 6:24 AM MST 5:20 PM MST
Nautical Twilight 5:53 AM MST 5:51 PM MST
Astronomical Twilight 5:22 AM MST 6:22 PM MST
Moon 3:08 AM MST (11/29) 2:32 PM MST (11/29)
Length of Visible Light 10h 55m
Length of Day
10h 00m
Waning Crescent, 13% of the Moon is Illuminated
Nov 29
Waning Crescent
Dec 2
New
Dec 9
First Quarter
Dec 17
Full
Dec 25
Last Quarter

Hourly Weather History & Observations

Time (MST) Temp. Windchill Dew Point Humidity Pressure Visibility Wind Dir Wind Speed Gust Speed Precip Events Conditions
12:15 AM 12.7 °F 6.7 °F 9.7 °F 88% 30.32 in 10.0 mi North 3.5 mph - N/A   Clear
12:35 AM 12.7 °F 3.6 °F 9.7 °F 88% 30.32 in 10.0 mi North 5.8 mph - N/A   Clear
12:55 AM 12.9 °F 5.2 °F 10.4 °F 90% 30.32 in 10.0 mi North 4.6 mph - N/A   Clear
1:15 AM 14.0 °F 6.5 °F 10.9 °F 88% 30.31 in 10.0 mi ENE 4.6 mph - N/A   Clear
1:35 AM 13.8 °F 6.2 °F 11.5 °F 90% 30.31 in 10.0 mi NE 4.6 mph - N/A   Clear
1:55 AM 12.9 °F 3.8 °F 10.6 °F 90% 30.31 in 10.0 mi NNE 5.8 mph - N/A   Clear
2:15 AM 13.5 °F - 10.8 °F 89% 30.32 in 10.0 mi Calm Calm - N/A   Clear
2:35 AM 12.2 °F 2.9 °F 9.5 °F 89% 30.32 in 10.0 mi NNW 5.8 mph - N/A   Clear
2:55 AM 12.2 °F 4.3 °F 9.5 °F 89% 30.32 in 10.0 mi NNW 4.6 mph - N/A   Clear
3:15 AM 12.2 °F - 9.5 °F 89% 30.32 in 10.0 mi Calm Calm - N/A   Clear
3:35 AM 11.3 °F 3.3 °F 8.6 °F 89% 30.32 in 10.0 mi NNE 4.6 mph - N/A   Clear
3:55 AM 12.6 °F - 10.0 °F 90% 30.32 in 10.0 mi Calm Calm - N/A   Clear
4:15 AM 11.3 °F 5.1 °F 8.4 °F 88% 30.31 in 10.0 mi NNE 3.5 mph - N/A   Clear
4:35 AM 12.2 °F 6.1 °F 9.7 °F 90% 30.32 in 10.0 mi ENE 3.5 mph - N/A   Clear
4:55 AM 12.2 °F 4.3 °F 9.5 °F 89% 30.32 in 10.0 mi NNE 4.6 mph - N/A   Clear
5:15 AM 12.4 °F 4.6 °F 9.5 °F 88% 30.32 in 10.0 mi North 4.6 mph - N/A   Clear
5:35 AM 12.7 °F 2.4 °F 9.9 °F 88% 30.32 in 10.0 mi North 6.9 mph - N/A   Clear
5:55 AM 13.1 °F 4.0 °F 10.8 °F 90% 30.33 in 10.0 mi North 5.8 mph - N/A   Clear
6:15 AM 13.5 °F 5.8 °F 10.9 °F 90% 30.33 in 10.0 mi North 4.6 mph - N/A   Clear
6:35 AM 12.7 °F 5.0 °F 10.2 °F 90% 30.33 in 10.0 mi North 4.6 mph - N/A   Clear
6:55 AM 12.6 °F 6.5 °F 9.7 °F 88% 30.34 in 10.0 mi NNW 3.5 mph - N/A   Clear
7:15 AM 14.2 °F - 11.7 °F 90% 30.34 in 10.0 mi Calm Calm - N/A   Clear
7:35 AM 14.7 °F - 12.0 °F 89% 30.35 in 10.0 mi Calm Calm - N/A   Clear
7:55 AM 17.2 °F - 14.5 °F 89% 30.35 in 10.0 mi Calm Calm - N/A   Clear
8:15 AM 19.2 °F - 16.3 °F 89% 30.36 in 10.0 mi Calm Calm - N/A   Clear
8:35 AM 21.4 °F - 18.3 °F 88% 30.36 in 10.0 mi Calm Calm - N/A   Clear
8:55 AM 25.5 °F 19.9 °F 21.9 °F 86% 30.37 in 10.0 mi NNE 4.6 mph - N/A   Clear
9:15 AM 28.0 °F 22.8 °F 23.2 °F 82% 30.37 in 10.0 mi North 4.6 mph - N/A   Clear
9:35 AM 31.5 °F 26.8 °F 24.8 °F 76% 30.37 in 10.0 mi North 4.6 mph - N/A   Clear
9:55 AM 33.4 °F 29.1 °F 25.5 °F 73% 30.37 in 10.0 mi NNE 4.6 mph - N/A   Clear
10:15 AM 35.4 °F 31.5 °F 26.2 °F 69% 30.37 in 10.0 mi North 4.6 mph - N/A   Clear
10:35 AM 36.9 °F 33.1 °F 26.6 °F 66% 30.37 in 10.0 mi NNE 4.6 mph - N/A   Clear
10:55 AM 37.9 °F - 27.0 °F 65% 30.36 in 10.0 mi Calm Calm - N/A   Clear
11:15 AM 39.2 °F - 26.6 °F 61% 30.35 in 10.0 mi Calm Calm - N/A   Clear
11:35 AM 39.0 °F 36.8 °F 28.2 °F 65% 30.35 in 10.0 mi SSW 3.5 mph - N/A   Clear
11:55 AM 38.7 °F 36.3 °F 28.4 °F 67% 30.34 in 10.0 mi SSW 3.5 mph - N/A   Clear
12:15 PM 39.2 °F - 27.3 °F 62% 30.33 in 10.0 mi Calm Calm - N/A   Clear
12:35 PM 40.1 °F - 28.0 °F 62% 30.32 in 10.0 mi Calm Calm - N/A   Clear
12:55 PM 40.3 °F - 27.7 °F 61% 30.31 in 10.0 mi Calm Calm - N/A   Clear
1:15 PM 41.2 °F - 28.4 °F 60% 30.31 in 10.0 mi Calm Calm - N/A   Clear
1:35 PM 41.7 °F - 28.2 °F 59% 30.31 in 10.0 mi Calm Calm - N/A   Clear
1:55 PM 42.6 °F - 28.8 °F 58% 30.29 in 10.0 mi Calm Calm - N/A   Clear
2:15 PM 43.2 °F - 28.8 °F 57% 30.29 in 10.0 mi Calm Calm - N/A   Clear
2:35 PM 43.9 °F - 28.8 °F 55% 30.28 in 10.0 mi Calm Calm - N/A   Clear
2:55 PM 43.7 °F - 28.8 °F 56% 30.28 in 10.0 mi Calm Calm - N/A   Clear
3:15 PM 44.2 °F - 29.1 °F 55% 30.28 in 10.0 mi Calm Calm - N/A   Clear
3:35 PM 43.2 °F - 28.9 °F 57% 30.28 in 10.0 mi Calm Calm - N/A   Clear
3:55 PM 44.1 °F - 28.8 °F 55% 30.29 in 10.0 mi Calm Calm - N/A   Clear
4:15 PM 42.1 °F - 28.4 °F 58% 30.29 in 10.0 mi Calm Calm - N/A   Clear
4:35 PM 38.5 °F 35.0 °F 28.8 °F 68% 30.29 in 10.0 mi SW 4.6 mph - N/A   Clear
4:55 PM 36.7 °F 32.9 °F 29.3 °F 75% 30.29 in 10.0 mi SW 4.6 mph - N/A   Clear
5:15 PM 36.1 °F 32.3 °F 28.9 °F 75% 30.30 in 10.0 mi WSW 4.6 mph - N/A   Clear
5:35 PM 32.0 °F 28.7 °F 27.5 °F 83% 30.31 in 10.0 mi ENE 3.5 mph - N/A   Clear
5:55 PM 32.9 °F - 27.7 °F 81% 30.31 in 10.0 mi Calm Calm - N/A   Clear
6:15 PM 31.8 °F 28.5 °F 27.1 °F 83% 30.31 in 10.0 mi North 3.5 mph - N/A   Clear
6:35 PM 31.8 °F - 28.0 °F 86% 30.31 in 10.0 mi Calm Calm - N/A   Clear
6:55 PM 29.5 °F - 26.6 °F 89% 30.31 in 10.0 mi Calm Calm - N/A   Clear
7:15 PM 28.2 °F 24.4 °F 25.7 °F 90% 30.32 in 10.0 mi North 3.5 mph - N/A   Clear
7:35 PM 27.0 °F 23.0 °F 25.0 °F 92% 30.32 in 10.0 mi North 3.5 mph - N/A   Clear
7:55 PM 27.0 °F - 25.0 °F 92% 30.32 in 10.0 mi Calm Calm - N/A   Clear
8:15 PM 25.7 °F - 23.9 °F 93% 30.33 in 10.0 mi Calm Calm - N/A   Clear
8:35 PM 24.8 °F - 23.4 °F 94% 30.33 in 10.0 mi Calm Calm - N/A   Clear
8:55 PM 24.1 °F - 22.5 °F 94% 30.32 in 10.0 mi Calm Calm - N/A   Clear
9:15 PM 23.0 °F 18.4 °F 21.7 °F 95% 30.32 in 10.0 mi North 3.5 mph - N/A   Clear
9:35 PM 23.2 °F 16.0 °F 21.4 °F 93% 30.33 in 10.0 mi North 5.8 mph - N/A   Clear
9:55 PM 22.6 °F - 21.0 °F 93% 30.33 in 10.0 mi Calm Calm - N/A   Clear
10:15 PM 23.9 °F 19.5 °F 22.1 °F 93% 30.34 in 10.0 mi ENE 3.5 mph - N/A   Clear
10:35 PM 23.4 °F 18.9 °F 21.2 °F 91% 30.33 in 10.0 mi ENE 3.5 mph - N/A   Clear
10:55 PM 23.7 °F 19.3 °F 21.7 °F 92% 30.33 in 10.0 mi NE 3.5 mph - N/A   Clear
11:15 PM 22.5 °F 17.8 °F 20.7 °F 93% 30.33 in 10.0 mi NNE 3.5 mph - N/A   Clear
11:35 PM 22.1 °F 17.4 °F 20.1 °F 92% 30.33 in 10.0 mi North 3.5 mph - N/A   Clear
11:55 PM 22.5 °F - 20.1 °F 91% 30.33 in 10.0 mi Calm Calm - N/A   Clear